Terug naar catalogus

OSCAR 24

ActiefAmateurradioPO
NORAD 15936·PAYLOAD·🇺🇸 United States

Gelanceerd Aug 3, 1985 vanaf Vandenberg Space Force Base

Loading…

Volgende Passages (komende 24 uur)

TLE

VersSource: Space-Track

Epoch: Sep 14, 2026, 13:26 UTC

1 15936U 85066B   26257.56029913  .00000042  00000-0  59096-4 0  9995
2 15936  90.1623  96.9630 0169948  32.5783 343.2274 13.35978608  3272

Volg OSCAR 24 in realtime met AllMySat

Download on the App Store